Year,Month,Day,Hour,Minute,Value (Times are PST for temperature in C)
2016,09,27,14,17,15.40
2016,09,27,14,18,15.50
2016,09,27,14,19,15.50
2016,09,27,14,20,15.60
2016,09,27,14,21,15.70
2016,09,27,14,22,15.80
2016,09,27,14,23,15.80
2016,09,27,14,24,15.90
2016,09,27,14,25,16.00
2016,09,27,14,26,16.10
2016,09,27,14,27,16.10
2016,09,27,14,28,16.20
2016,09,27,14,29,16.20
2016,09,27,14,30,16.20
2016,09,27,14,31,16.20
2016,09,27,14,32,16.20
2016,09,27,14,33,16.20
2016,09,27,14,34,16.20
2016,09,27,14,35,16.20
2016,09,27,14,36,16.20
2016,09,27,14,37,16.20
2016,09,27,14,38,16.20
2016,09,27,14,39,16.20
2016,09,27,14,40,16.20
2016,09,27,14,41,16.30
2016,09,27,14,42,16.30
2016,09,27,14,43,16.30
2016,09,27,14,44,16.30
2016,09,27,14,45,16.50
2016,09,27,14,46,16.50
2016,09,27,14,47,16.70
2016,09,27,14,48,16.80
2016,09,27,14,49,16.80
2016,09,27,14,50,16.90
2016,09,27,14,51,17.00
2016,09,27,14,52,17.00
2016,09,27,14,53,17.10
2016,09,27,14,54,17.20
2016,09,27,14,55,17.20
2016,09,27,14,56,17.30
2016,09,27,14,57,17.40
2016,09,27,14,58,17.50
2016,09,27,14,59,17.50
2016,09,27,15,00,17.60
2016,09,27,15,01,17.60
2016,09,27,15,02,17.70
2016,09,27,15,03,17.80
2016,09,27,15,04,17.80
2016,09,27,15,05,17.90
2016,09,27,15,06,17.90
2016,09,27,15,07,17.90
2016,09,27,15,08,17.90
2016,09,27,15,09,17.90
2016,09,27,15,10,18.00
2016,09,27,15,11,18.10
2016,09,27,15,12,18.10
2016,09,27,15,13,18.20
2016,09,27,15,14,18.20
2016,09,27,15,15,18.30
2016,09,27,15,16,18.30
2016,09,27,15,17,18.30
2016,09,27,15,18,18.30
2016,09,27,15,19,18.30
2016,09,27,15,20,18.40
2016,09,27,15,21,18.30
2016,09,27,15,22,18.30
2016,09,27,15,23,18.20
2016,09,27,15,24,18.10
2016,09,27,15,25,17.90
2016,09,27,15,26,17.80
2016,09,27,15,27,17.70
2016,09,27,15,28,17.60
2016,09,27,15,29,17.60
2016,09,27,15,30,17.50
2016,09,27,15,31,17.40
2016,09,27,15,32,17.40
2016,09,27,15,33,17.20
2016,09,27,15,34,17.10
2016,09,27,15,35,17.00
2016,09,27,15,36,17.00
2016,09,27,15,37,16.90
2016,09,27,15,38,16.90
2016,09,27,15,39,16.90
2016,09,27,15,40,16.70
2016,09,27,15,41,16.60
2016,09,27,15,42,16.50
2016,09,27,15,43,16.40
2016,09,27,15,44,16.40
2016,09,27,15,45,16.30
2016,09,27,15,46,16.30
2016,09,27,15,47,16.30
2016,09,27,15,48,16.30
2016,09,27,15,49,16.20
2016,09,27,15,50,16.20
2016,09,27,15,51,16.20
2016,09,27,15,52,16.20
2016,09,27,15,53,16.20
2016,09,27,15,54,16.10
2016,09,27,15,55,16.10
2016,09,27,15,56,16.00
2016,09,27,15,57,16.00
2016,09,27,15,58,15.90
2016,09,27,15,59,15.80
2016,09,27,16,00,15.80
2016,09,27,16,01,15.90
2016,09,27,16,02,15.90
2016,09,27,16,03,15.90
2016,09,27,16,04,15.90
2016,09,27,16,05,15.90
2016,09,27,16,06,15.90
2016,09,27,16,07,15.90
2016,09,27,16,08,15.80
2016,09,27,16,09,15.80
2016,09,27,16,10,15.80
2016,09,27,16,11,15.80
2016,09,27,16,12,15.80
2016,09,27,16,13,15.80
2016,09,27,16,14,15.80
2016,09,27,16,15,15.80
2016,09,27,16,16,15.80
2016,09,27,16,17,15.90
2016,09,27,16,18,15.90
2016,09,27,16,19,15.90
2016,09,27,16,20,15.90
2016,09,27,16,21,15.80
2016,09,27,16,22,15.80
2016,09,27,16,23,15.80
2016,09,27,16,24,15.80
2016,09,27,16,25,15.90
2016,09,27,16,26,15.90
2016,09,27,16,27,15.80
2016,09,27,16,28,15.80
2016,09,27,16,29,15.80
2016,09,27,16,30,15.90
2016,09,27,16,31,16.00
2016,09,27,16,32,16.10
2016,09,27,16,33,16.20
2016,09,27,16,34,16.30
2016,09,27,16,35,16.40
2016,09,27,16,36,16.50
2016,09,27,16,37,16.50
2016,09,27,16,38,16.60
2016,09,27,16,39,16.70
2016,09,27,16,40,16.70
2016,09,27,16,41,16.80
2016,09,27,16,42,16.80
2016,09,27,16,43,16.90
2016,09,27,16,44,17.00
2016,09,27,16,45,17.10
2016,09,27,16,46,17.20
2016,09,27,16,47,17.20
2016,09,27,16,48,17.10
2016,09,27,16,49,17.10
2016,09,27,16,50,17.10
2016,09,27,16,51,17.10
2016,09,27,16,52,17.10
2016,09,27,16,53,17.20
2016,09,27,16,54,17.20
2016,09,27,16,55,17.20
2016,09,27,16,56,17.20
2016,09,27,16,57,17.20
2016,09,27,16,58,17.10
2016,09,27,16,59,17.10
2016,09,27,17,00,17.10
2016,09,27,17,01,17.10
2016,09,27,17,02,17.10
2016,09,27,17,03,17.10
2016,09,27,17,04,17.10
2016,09,27,17,05,17.10
2016,09,27,17,06,17.10
2016,09,27,17,07,17.10
2016,09,27,17,08,17.10
2016,09,27,17,09,17.20
2016,09,27,17,10,17.10
2016,09,27,17,11,17.10
2016,09,27,17,12,17.20
2016,09,27,17,13,17.20
2016,09,27,17,14,17.20
2016,09,27,17,15,17.20
2016,09,27,17,16,17.20
2016,09,27,17,17,17.20
2016,09,27,17,18,17.20
2016,09,27,17,19,17.20
2016,09,27,17,20,17.20
2016,09,27,17,21,17.20
2016,09,27,17,22,17.30
2016,09,27,17,23,17.30
2016,09,27,17,24,17.40
2016,09,27,17,25,17.40
2016,09,27,17,26,17.40
2016,09,27,17,27,17.30
2016,09,27,17,28,17.20
2016,09,27,17,29,17.10
2016,09,27,17,30,17.10
2016,09,27,17,31,17.00
2016,09,27,17,32,16.90
2016,09,27,17,33,16.80
2016,09,27,17,34,16.80
2016,09,27,17,35,16.70
2016,09,27,17,36,16.70
2016,09,27,17,37,16.70
2016,09,27,17,38,16.60
2016,09,27,17,39,16.60
2016,09,27,17,40,16.50
2016,09,27,17,41,16.30
2016,09,27,17,42,16.20
2016,09,27,17,43,16.00
2016,09,27,17,44,15.90
2016,09,27,17,45,15.80
2016,09,27,17,46,15.60
2016,09,27,17,47,15.50
2016,09,27,17,48,15.40
2016,09,27,17,49,15.30
2016,09,27,17,50,15.20
2016,09,27,17,51,15.10
2016,09,27,17,52,15.00
2016,09,27,17,53,14.90
2016,09,27,17,54,14.80
2016,09,27,17,55,14.70
2016,09,27,17,56,14.70
2016,09,27,17,57,14.60
2016,09,27,17,58,14.50
2016,09,27,17,59,14.50
2016,09,27,18,00,14.50
2016,09,27,18,01,14.40
2016,09,27,18,02,14.40
2016,09,27,18,03,14.40
2016,09,27,18,04,14.40
2016,09,27,18,05,14.30
2016,09,27,18,06,14.30
2016,09,27,18,07,14.20
2016,09,27,18,08,14.20
2016,09,27,18,09,14.20
2016,09,27,18,10,14.20
2016,09,27,18,11,14.20
2016,09,27,18,12,14.20
2016,09,27,18,13,14.20
2016,09,27,18,14,14.20
2016,09,27,18,15,14.20
2016,09,27,18,16,14.10
2016,09,27,18,17,14.10
2016,09,27,18,18,14.10
2016,09,27,18,19,14.10
2016,09,27,18,20,14.10
2016,09,27,18,21,14.10
2016,09,27,18,22,14.10
2016,09,27,18,23,14.10
2016,09,27,18,24,14.10
2016,09,27,18,25,14.00
2016,09,27,18,26,14.00
2016,09,27,18,27,14.00
2016,09,27,18,28,14.00
2016,09,27,18,29,13.90
2016,09,27,18,30,13.90
2016,09,27,18,31,13.90
2016,09,27,18,32,13.90
2016,09,27,18,33,13.90
2016,09,27,18,34,14.00
2016,09,27,18,35,14.00
2016,09,27,18,36,14.00
2016,09,27,18,37,14.00
2016,09,27,18,38,14.00
2016,09,27,18,39,14.00
2016,09,27,18,40,14.00
2016,09,27,18,41,14.00
2016,09,27,18,42,13.90
2016,09,27,18,43,13.90
2016,09,27,18,44,13.80
2016,09,27,18,45,13.80
2016,09,27,18,46,13.80
2016,09,27,18,47,13.70
2016,09,27,18,48,13.70
2016,09,27,18,49,13.70
2016,09,27,18,50,13.60
2016,09,27,18,51,13.60
2016,09,27,18,52,13.60
2016,09,27,18,53,13.50
2016,09,27,18,54,13.50
2016,09,27,18,55,13.50
2016,09,27,18,56,13.50
2016,09,27,18,57,13.50
2016,09,27,18,58,13.50
2016,09,27,18,59,13.40
2016,09,27,19,00,13.40
2016,09,27,19,01,13.40
2016,09,27,19,02,13.40
2016,09,27,19,03,13.30
2016,09,27,19,04,13.30
2016,09,27,19,05,13.20
2016,09,27,19,06,13.20
2016,09,27,19,07,13.20
2016,09,27,19,08,13.10
2016,09,27,19,09,13.10
2016,09,27,19,10,13.10
2016,09,27,19,11,13.10
2016,09,27,19,12,13.00
2016,09,27,19,13,13.00
2016,09,27,19,14,13.00
2016,09,27,19,15,13.00
2016,09,27,19,16,13.00
2016,09,27,19,17,12.90
2016,09,27,19,18,13.00
2016,09,27,19,19,13.00
2016,09,27,19,20,13.00
2016,09,27,19,21,13.00
2016,09,27,19,22,13.00
2016,09,27,19,23,13.00
2016,09,27,19,24,13.00
2016,09,27,19,25,13.10
2016,09,27,19,26,13.10
2016,09,27,19,27,13.10
2016,09,27,19,28,13.10
2016,09,27,19,29,13.10
2016,09,27,19,30,13.10
2016,09,27,19,31,13.20
2016,09,27,19,32,13.20
2016,09,27,19,33,13.20
2016,09,27,19,34,13.20
2016,09,27,19,35,13.20
2016,09,27,19,36,13.20
2016,09,27,19,37,13.20
2016,09,27,19,38,13.30
2016,09,27,19,39,13.30
2016,09,27,19,40,13.30
2016,09,27,19,41,13.30
2016,09,27,19,42,13.30
2016,09,27,19,43,13.40
2016,09,27,19,44,13.40
2016,09,27,19,45,13.40
2016,09,27,19,46,13.40
2016,09,27,19,47,13.40
2016,09,27,19,48,13.40
2016,09,27,19,49,13.40
2016,09,27,19,50,13.50
2016,09,27,19,51,13.50
2016,09,27,19,52,13.60
2016,09,27,19,53,13.60
2016,09,27,19,54,13.60
2016,09,27,19,55,13.60
2016,09,27,19,56,13.60
2016,09,27,19,57,13.60
2016,09,27,19,58,13.60
2016,09,27,19,59,13.60
2016,09,27,20,00,13.60
2016,09,27,20,01,13.70
2016,09,27,20,02,13.70
2016,09,27,20,03,13.70
2016,09,27,20,04,13.70
2016,09,27,20,05,13.70
2016,09,27,20,06,13.70
2016,09,27,20,07,13.70
2016,09,27,20,08,13.70
2016,09,27,20,09,13.70
2016,09,27,20,10,13.70
2016,09,27,20,11,13.70
2016,09,27,20,12,13.70
2016,09,27,20,13,13.70
2016,09,27,20,14,13.80
2016,09,27,20,15,13.70
2016,09,27,20,16,13.70
2016,09,27,20,17,13.70
2016,09,27,20,18,13.70
2016,09,27,20,19,13.70
2016,09,27,20,20,13.70
2016,09,27,20,21,13.70
2016,09,27,20,22,13.70
2016,09,27,20,23,13.70
2016,09,27,20,24,13.70
2016,09,27,20,25,13.70
2016,09,27,20,26,13.70
2016,09,27,20,27,13.70
2016,09,27,20,28,13.70
2016,09,27,20,29,13.60
2016,09,27,20,30,13.60
2016,09,27,20,31,13.60
2016,09,27,20,32,13.60
2016,09,27,20,33,13.60
2016,09,27,20,34,13.60
2016,09,27,20,35,13.60
2016,09,27,20,36,13.60
2016,09,27,20,37,13.60
2016,09,27,20,38,13.50
2016,09,27,20,39,13.50
2016,09,27,20,40,13.50
2016,09,27,20,41,13.50
2016,09,27,20,42,13.50
2016,09,27,20,43,13.50
2016,09,27,20,44,13.50
2016,09,27,20,45,13.50
2016,09,27,20,46,13.50
2016,09,27,20,47,13.50
2016,09,27,20,48,13.50
2016,09,27,20,49,13.50
2016,09,27,20,50,13.50
2016,09,27,20,51,13.50
2016,09,27,20,52,13.50
2016,09,27,20,53,13.50
2016,09,27,20,54,13.40
2016,09,27,20,55,13.40
2016,09,27,20,56,13.40
2016,09,27,20,57,13.40
2016,09,27,20,58,13.40
2016,09,27,20,59,13.40
2016,09,27,21,00,13.40
2016,09,27,21,01,13.40
2016,09,27,21,02,13.40
2016,09,27,21,03,13.40
2016,09,27,21,04,13.30
2016,09,27,21,05,13.30
2016,09,27,21,06,13.20
2016,09,27,21,07,13.20
2016,09,27,21,08,13.10
2016,09,27,21,09,13.00
2016,09,27,21,10,13.00
2016,09,27,21,11,12.90
2016,09,27,21,12,12.80
2016,09,27,21,13,12.80
2016,09,27,21,14,12.70
2016,09,27,21,15,12.70
2016,09,27,21,16,12.70
2016,09,27,21,17,12.60
2016,09,27,21,18,12.50
2016,09,27,21,19,12.50
2016,09,27,21,20,12.40
2016,09,27,21,21,12.30
2016,09,27,21,22,12.30
2016,09,27,21,23,12.20
2016,09,27,21,24,12.20
2016,09,27,21,25,12.10
2016,09,27,21,26,12.10
2016,09,27,21,27,12.10
2016,09,27,21,28,12.10
2016,09,27,21,29,12.10
2016,09,27,21,30,12.00
2016,09,27,21,31,12.00
2016,09,27,21,32,12.00
2016,09,27,21,33,12.00
2016,09,27,21,34,12.00
2016,09,27,21,35,12.00
2016,09,27,21,36,12.00
2016,09,27,21,37,12.00
2016,09,27,21,38,12.00
2016,09,27,21,39,12.00
2016,09,27,21,40,12.00
2016,09,27,21,41,12.10
2016,09,27,21,42,12.10
2016,09,27,21,43,12.10
2016,09,27,21,44,12.10
2016,09,27,21,45,12.10
2016,09,27,21,46,12.10
2016,09,27,21,47,12.10
2016,09,27,21,48,12.20
2016,09,27,21,49,12.20
2016,09,27,21,50,12.20
2016,09,27,21,51,12.20
2016,09,27,21,52,12.20
2016,09,27,21,53,12.20
2016,09,27,21,54,12.20
2016,09,27,21,55,12.20
2016,09,27,21,56,12.20
2016,09,27,21,57,12.20
2016,09,27,21,58,12.20
2016,09,27,21,59,12.20
2016,09,27,22,00,12.20
2016,09,27,22,01,12.20
2016,09,27,22,02,12.20
2016,09,27,22,03,12.20
2016,09,27,22,04,12.20
2016,09,27,22,05,12.20
2016,09,27,22,06,12.20
2016,09,27,22,07,12.20
2016,09,27,22,08,12.20
2016,09,27,22,09,12.20
2016,09,27,22,10,12.20
2016,09,27,22,11,12.20
2016,09,27,22,12,12.20
2016,09,27,22,13,12.20
2016,09,27,22,14,12.20
2016,09,27,22,15,12.20
2016,09,27,22,16,12.20
2016,09,27,22,17,12.20
2016,09,27,22,18,12.20
2016,09,27,22,19,12.20
2016,09,27,22,20,12.20
2016,09,27,22,21,12.20
2016,09,27,22,22,12.20
2016,09,27,22,23,12.20
2016,09,27,22,24,12.20
2016,09,27,22,25,12.20
2016,09,27,22,26,12.20
2016,09,27,22,27,12.30
2016,09,27,22,28,12.30
2016,09,27,22,29,12.30
2016,09,27,22,30,12.30
2016,09,27,22,31,12.30
2016,09,27,22,32,12.30
2016,09,27,22,33,12.30
2016,09,27,22,34,12.30
2016,09,27,22,35,12.30
2016,09,27,22,36,12.30
2016,09,27,22,37,12.30
2016,09,27,22,38,12.30
2016,09,27,22,39,12.30
2016,09,27,22,40,12.40
2016,09,27,22,41,12.40
2016,09,27,22,42,12.40
2016,09,27,22,43,12.40
2016,09,27,22,44,12.40
2016,09,27,22,45,12.40
2016,09,27,22,46,12.40
2016,09,27,22,47,12.40
2016,09,27,22,48,12.40
2016,09,27,22,49,12.40
2016,09,27,22,50,12.40
2016,09,27,22,51,12.40
2016,09,27,22,52,12.40
2016,09,27,22,53,12.40
2016,09,27,22,54,12.40
2016,09,27,22,55,12.40
2016,09,27,22,56,12.40
2016,09,27,22,57,12.40
2016,09,27,22,58,12.40
2016,09,27,22,59,12.40
2016,09,27,23,00,12.40
2016,09,27,23,01,12.40
2016,09,27,23,02,12.40
2016,09,27,23,03,12.40
2016,09,27,23,04,12.40
2016,09,27,23,05,12.40
2016,09,27,23,06,12.40
2016,09,27,23,07,12.40
2016,09,27,23,08,12.40
2016,09,27,23,09,12.40
2016,09,27,23,10,12.40
2016,09,27,23,11,12.40
2016,09,27,23,12,12.40
2016,09,27,23,13,12.40
2016,09,27,23,14,12.40
2016,09,27,23,15,12.40
2016,09,27,23,16,12.40
2016,09,27,23,17,12.40
2016,09,27,23,18,12.40
2016,09,27,23,19,12.40
2016,09,27,23,20,12.40
2016,09,27,23,21,12.40
2016,09,27,23,22,12.40
2016,09,27,23,23,12.30
2016,09,27,23,24,12.30
2016,09,27,23,25,12.30
2016,09,27,23,26,12.30
2016,09,27,23,27,12.30
2016,09,27,23,28,12.30
2016,09,27,23,29,12.30
2016,09,27,23,30,12.30
2016,09,27,23,31,12.30
2016,09,27,23,32,12.30
2016,09,27,23,33,12.30
2016,09,27,23,34,12.30
2016,09,27,23,35,12.30
2016,09,27,23,36,12.30
2016,09,27,23,37,12.30
2016,09,27,23,38,12.30
2016,09,27,23,39,12.30
2016,09,27,23,40,12.30
2016,09,27,23,41,12.30
2016,09,27,23,42,12.30
2016,09,27,23,43,12.30
2016,09,27,23,44,12.30
2016,09,27,23,45,12.20
2016,09,27,23,46,12.20
2016,09,27,23,47,12.20
2016,09,27,23,48,12.20
2016,09,27,23,49,12.20
2016,09,27,23,50,12.20
2016,09,27,23,51,12.20
2016,09,27,23,52,12.20
2016,09,27,23,53,12.20
2016,09,27,23,54,12.20
2016,09,27,23,55,12.20
2016,09,27,23,56,12.20
2016,09,27,23,57,12.20
2016,09,27,23,58,12.20
2016,09,27,23,59,12.20
